Time,TemperatureF,DewpointF,PressureIn,WindDirection,WindDirectionDegrees,WindSpeedMPH,WindSpeedGustMPH,Humidity,HourlyPrecipIn,Conditions,Clouds,dailyrainin,SoftwareType,DateUTC
2013-09-02 00:01:00,75.6,73.7,29.77,South,180,0.0,-999.0,94,-99.99,,,0.00,Acu-Link.com,2013-09-02 04:01:00,
2013-09-02 00:16:00,75.6,73.7,29.78,SSW,202,0.0,-999.0,94,-99.99,,,0.00,Acu-Link.com,2013-09-02 04:16:00,
2013-09-02 00:31:00,75.2,73.7,29.77,South,180,0.0,-999.0,95,-99.99,,,0.00,Acu-Link.com,2013-09-02 04:31:00,
2013-09-02 00:47:00,75.2,73.7,29.77,SSE,157,0.0,-999.0,95,-99.99,,,0.00,Acu-Link.com,2013-09-02 04:47:00,
2013-09-02 01:02:00,75.0,73.5,29.77,South,180,0.0,-999.0,95,-99.99,,,0.00,Acu-Link.com,2013-09-02 05:02:00,
2013-09-02 01:17:00,75.2,73.7,29.78,SE,135,0.0,-999.0,95,-99.99,,,0.00,Acu-Link.com,2013-09-02 05:17:00,
2013-09-02 01:33:00,75.2,73.7,29.77,SSE,157,0.0,-999.0,95,-99.99,,,0.00,Acu-Link.com,2013-09-02 05:33:00,
2013-09-02 01:48:00,75.0,73.5,29.78,South,180,0.0,-999.0,95,-99.99,,,0.00,Acu-Link.com,2013-09-02 05:48:00,
2013-09-02 02:03:00,74.8,73.3,29.78,SW,225,0.0,-999.0,95,-99.99,,,0.00,Acu-Link.com,2013-09-02 06:03:00,
2013-09-02 02:19:00,74.7,73.2,29.77,South,180,0.0,-999.0,95,-99.99,,,0.00,Acu-Link.com,2013-09-02 06:19:00,
2013-09-02 02:34:00,74.5,73.0,29.76,SE,135,0.0,-999.0,95,-99.99,,,0.00,Acu-Link.com,2013-09-02 06:34:00,
2013-09-02 02:49:00,74.3,72.8,29.76,South,180,0.0,-999.0,95,-99.99,,,0.00,Acu-Link.com,2013-09-02 06:49:00,
2013-09-02 03:05:00,74.3,72.8,29.77,ESE,112,0.0,-999.0,95,-99.99,,,0.00,Acu-Link.com,2013-09-02 07:05:00,
2013-09-02 03:20:00,74.3,72.8,29.76,SE,135,0.0,-999.0,95,-99.99,,,0.00,Acu-Link.com,2013-09-02 07:20:00,
2013-09-02 03:35:00,74.1,72.6,29.76,SE,135,0.0,-999.0,95,-99.99,,,0.00,Acu-Link.com,2013-09-02 07:35:00,
2013-09-02 03:50:00,74.3,72.8,29.76,SE,135,0.0,-999.0,95,-99.99,,,0.00,Acu-Link.com,2013-09-02 07:50:00,
2013-09-02 04:06:00,74.1,72.9,29.76,SSE,157,0.0,-999.0,96,-99.99,,,0.00,Acu-Link.com,2013-09-02 08:06:00,
2013-09-02 04:22:00,74.1,72.9,29.76,SSE,157,0.0,-999.0,96,-99.99,,,0.00,Acu-Link.com,2013-09-02 08:22:00,
2013-09-02 04:37:00,74.1,72.6,29.76,SSE,157,0.0,-999.0,95,-99.99,,,0.00,Acu-Link.com,2013-09-02 08:37:00,
2013-09-02 04:52:00,74.1,72.9,29.75,SW,225,0.0,-999.0,96,-99.99,,,0.00,Acu-Link.com,2013-09-02 08:52:00,
2013-09-02 05:08:00,73.9,72.7,29.75,SSW,202,0.0,-999.0,96,-99.99,,,0.00,Acu-Link.com,2013-09-02 09:08:00,
2013-09-02 05:23:00,73.9,72.7,29.74,South,180,0.0,-999.0,96,-99.99,,,0.00,Acu-Link.com,2013-09-02 09:23:00,
2013-09-02 05:38:00,73.2,72.0,29.75,SSE,157,0.0,-999.0,96,-99.99,,,0.00,Acu-Link.com,2013-09-02 09:38:00,
2013-09-02 05:53:00,73.2,72.0,29.75,SSE,157,0.0,-999.0,96,-99.99,,,0.00,Acu-Link.com,2013-09-02 09:53:00,
2013-09-02 06:08:00,73.2,72.0,29.75,SW,225,0.0,-999.0,96,-99.99,,,0.00,Acu-Link.com,2013-09-02 10:08:00,
2013-09-02 06:23:00,73.0,71.8,29.75,SW,225,0.0,-999.0,96,-99.99,,,0.00,Acu-Link.com,2013-09-02 10:23:00,
2013-09-02 06:39:00,72.9,71.7,29.76,SW,225,0.0,-999.0,96,-99.99,,,0.00,Acu-Link.com,2013-09-02 10:39:00,
2013-09-02 06:54:00,72.7,71.5,29.77,SE,135,0.0,-999.0,96,-99.99,,,0.00,Acu-Link.com,2013-09-02 10:54:00,
2013-09-02 07:09:00,72.7,71.5,29.78,South,180,0.0,-999.0,96,-99.99,,,0.00,Acu-Link.com,2013-09-02 11:09:00,
2013-09-02 07:25:00,72.7,71.5,29.78,SSW,202,0.0,-999.0,96,-99.99,,,0.00,Acu-Link.com,2013-09-02 11:25:00,
2013-09-02 07:40:00,72.7,71.5,29.78,SW,225,0.0,-999.0,96,-99.99,,,0.00,Acu-Link.com,2013-09-02 11:40:00,
2013-09-02 07:55:00,72.7,71.5,29.78,SW,225,0.0,-999.0,96,-99.99,,,0.00,Acu-Link.com,2013-09-02 11:55:00,
2013-09-02 08:10:00,72.9,71.7,29.79,South,180,0.0,-999.0,96,-99.99,,,0.00,Acu-Link.com,2013-09-02 12:10:00,
2013-09-02 08:26:00,73.0,71.8,29.80,SW,225,0.0,-999.0,96,-99.99,,,0.00,Acu-Link.com,2013-09-02 12:26:00,
2013-09-02 08:41:00,73.8,72.9,29.80,SSW,202,0.0,-999.0,97,-99.99,,,0.00,Acu-Link.com,2013-09-02 12:41:00,
2013-09-02 08:56:00,74.7,73.5,29.80,SSW,202,0.0,-999.0,96,-99.99,,,0.00,Acu-Link.com,2013-09-02 12:56:00,
2013-09-02 09:11:00,75.7,73.8,29.80,SW,225,0.0,-999.0,94,-99.99,,,0.00,Acu-Link.com,2013-09-02 13:11:00,
2013-09-02 09:27:00,76.1,73.6,29.79,SW,225,0.0,-999.0,92,-99.99,,,0.00,Acu-Link.com,2013-09-02 13:27:00,
2013-09-02 09:42:00,78.1,74.2,29.81,SSW,202,0.0,-999.0,88,-99.99,,,0.00,Acu-Link.com,2013-09-02 13:42:00,
2013-09-02 09:57:00,78.8,74.6,29.80,East,90,0.0,-999.0,87,-99.99,,,0.00,Acu-Link.com,2013-09-02 13:57:00,
2013-09-02 10:13:00,77.9,74.4,29.80,South,180,0.0,-999.0,89,-99.99,,,0.00,Acu-Link.com,2013-09-02 14:13:00,
2013-09-02 10:28:00,81.0,76.1,29.80,SSE,157,0.0,-999.0,85,-99.99,,,0.00,Acu-Link.com,2013-09-02 14:28:00,
2013-09-02 10:43:00,81.9,75.8,29.81,South,180,0.0,-999.0,82,-99.99,,,0.00,Acu-Link.com,2013-09-02 14:43:00,
2013-09-02 10:59:00,82.6,76.2,29.81,WSW,247,0.0,-999.0,81,-99.99,,,0.00,Acu-Link.com,2013-09-02 14:59:00,
2013-09-02 11:14:00,82.9,75.7,29.81,South,180,0.0,-999.0,79,-99.99,,,0.00,Acu-Link.com,2013-09-02 15:14:00,
2013-09-02 11:29:00,83.1,76.6,29.81,SSW,202,0.0,-999.0,81,-99.99,,,0.00,Acu-Link.com,2013-09-02 15:29:00,
2013-09-02 11:44:00,83.5,76.3,29.80,NNW,337,0.0,-999.0,79,-99.99,,,0.00,Acu-Link.com,2013-09-02 15:44:00,
2013-09-02 12:00:00,83.8,77.0,29.80,WSW,247,0.0,-999.0,80,-99.99,,,0.00,Acu-Link.com,2013-09-02 16:00:00,
2013-09-02 12:15:00,84.6,77.3,29.81,SSW,202,0.0,-999.0,79,-99.99,,,0.00,Acu-Link.com,2013-09-02 16:15:00,
2013-09-02 12:30:00,83.1,75.9,29.79,WNW,292,0.0,-999.0,79,-99.99,,,0.00,Acu-Link.com,2013-09-02 16:30:00,
2013-09-02 12:45:00,82.6,76.2,29.79,SSW,202,0.0,-999.0,81,-99.99,,,0.00,Acu-Link.com,2013-09-02 16:45:00,
2013-09-02 13:01:00,84.6,76.2,29.78,NE,45,0.0,-999.0,76,-99.99,,,0.00,Acu-Link.com,2013-09-02 17:01:00,
2013-09-02 13:16:00,86.4,75.0,29.78,NW,315,0.0,-999.0,69,-99.99,,,0.00,Acu-Link.com,2013-09-02 17:16:00,
2013-09-02 13:31:00,85.3,76.9,29.78,ESE,112,0.0,-999.0,76,-99.99,,,0.00,Acu-Link.com,2013-09-02 17:31:00,
2013-09-02 13:47:00,84.7,75.5,29.77,NW,315,0.0,-999.0,74,-99.99,,,0.00,Acu-Link.com,2013-09-02 17:47:00,
2013-09-02 14:02:00,84.6,76.2,29.78,ENE,67,0.0,-999.0,76,-99.99,,,0.00,Acu-Link.com,2013-09-02 18:02:00,
2013-09-02 14:18:00,86.0,76.7,29.77,NNW,337,0.0,-999.0,74,-99.99,,,0.00,Acu-Link.com,2013-09-02 18:18:00,
2013-09-02 14:33:00,85.6,76.7,29.77,South,180,0.0,-999.0,75,-99.99,,,0.00,Acu-Link.com,2013-09-02 18:33:00,
2013-09-02 14:48:00,85.8,76.5,29.76,WNW,292,0.0,-999.0,74,-99.99,,,0.00,Acu-Link.com,2013-09-02 18:48:00,
2013-09-02 15:04:00,85.5,77.8,29.75,NNW,337,0.0,-999.0,78,-99.99,,,0.00,Acu-Link.com,2013-09-02 19:04:00,
2013-09-02 15:19:00,86.0,76.7,29.73,SW,225,0.0,-999.0,74,-99.99,,,0.00,Acu-Link.com,2013-09-02 19:19:00,
2013-09-02 15:34:00,86.7,76.1,29.73,NNE,22,0.0,-999.0,71,-99.99,,,0.00,Acu-Link.com,2013-09-02 19:34:00,
2013-09-02 15:50:00,86.5,77.6,29.72,SSW,202,0.0,-999.0,75,-99.99,,,0.00,Acu-Link.com,2013-09-02 19:50:00,
2013-09-02 16:05:00,86.4,77.5,29.72,SW,225,0.0,-999.0,75,-99.99,,,0.00,Acu-Link.com,2013-09-02 20:05:00,
2013-09-02 16:21:00,85.5,76.6,29.72,SSE,157,0.0,-999.0,75,-99.99,,,0.00,Acu-Link.com,2013-09-02 20:21:00,
2013-09-02 16:36:00,85.3,77.2,29.72,WSW,247,0.0,-999.0,77,-99.99,,,0.00,Acu-Link.com,2013-09-02 20:36:00,
2013-09-02 17:08:00,86.0,77.9,29.72,West,270,0.0,-999.0,77,-99.99,,,0.00,Acu-Link.com,2013-09-02 21:08:00,
2013-09-02 17:23:00,86.2,77.3,29.72,SSW,202,0.0,-999.0,75,-99.99,,,0.00,Acu-Link.com,2013-09-02 21:23:00,
2013-09-02 17:38:00,85.1,76.3,29.72,SW,225,0.0,-999.0,75,-99.99,,,0.00,Acu-Link.com,2013-09-02 21:38:00,
2013-09-02 17:54:00,84.2,77.0,29.71,SW,225,0.0,-999.0,79,-99.99,,,0.00,Acu-Link.com,2013-09-02 21:54:00,
2013-09-02 18:09:00,83.3,76.5,29.72,WSW,247,0.0,-999.0,80,-99.99,,,0.00,Acu-Link.com,2013-09-02 22:09:00,
2013-09-02 18:24:00,82.6,76.2,29.73,West,270,0.0,-999.0,81,-99.99,,,0.00,Acu-Link.com,2013-09-02 22:24:00,
2013-09-02 18:40:00,82.6,75.8,29.73,NE,45,0.0,-999.0,80,-99.99,,,0.00,Acu-Link.com,2013-09-02 22:40:00,
2013-09-02 18:55:00,82.2,76.1,29.72,South,180,0.0,-999.0,82,-99.99,,,0.00,Acu-Link.com,2013-09-02 22:55:00,
2013-09-02 19:10:00,82.0,76.3,29.73,SSW,202,0.0,-999.0,83,-99.99,,,0.00,Acu-Link.com,2013-09-02 23:10:00,
2013-09-02 19:25:00,81.3,76.3,29.72,South,180,0.0,-999.0,85,-99.99,,,0.00,Acu-Link.com,2013-09-02 23:25:00,
2013-09-02 19:41:00,81.1,75.4,29.73,SW,225,0.0,-999.0,83,-99.99,,,0.00,Acu-Link.com,2013-09-02 23:41:00,
2013-09-02 19:56:00,80.4,75.5,29.74,SSW,202,0.0,-999.0,85,-99.99,,,0.00,Acu-Link.com,2013-09-02 23:56:00,
2013-09-02 20:11:00,79.9,75.3,29.74,SSW,202,0.0,-999.0,86,-99.99,,,0.00,Acu-Link.com,2013-09-03 00:11:00,
2013-09-02 20:27:00,79.3,75.4,29.75,SSE,157,0.0,-999.0,88,-99.99,,,0.00,Acu-Link.com,2013-09-03 00:27:00,
2013-09-02 20:42:00,79.2,75.0,29.74,SSW,202,0.0,-999.0,87,-99.99,,,0.00,Acu-Link.com,2013-09-03 00:42:00,
2013-09-02 20:57:00,78.8,75.3,29.75,SSW,202,0.0,-999.0,89,-99.99,,,0.00,Acu-Link.com,2013-09-03 00:57:00,
2013-09-02 21:13:00,78.1,74.6,29.76,SSW,202,0.0,-999.0,89,-99.99,,,0.00,Acu-Link.com,2013-09-03 01:13:00,
2013-09-02 21:28:00,77.7,74.5,29.76,SSW,202,0.0,-999.0,90,-99.99,,,0.00,Acu-Link.com,2013-09-03 01:28:00,
2013-09-02 21:43:00,77.7,74.5,29.76,South,180,0.0,-999.0,90,-99.99,,,0.00,Acu-Link.com,2013-09-03 01:43:00,
2013-09-02 21:59:00,77.5,74.3,29.77,SSW,202,0.0,-999.0,90,-99.99,,,0.00,Acu-Link.com,2013-09-03 01:59:00,
2013-09-02 22:14:00,77.4,74.6,29.77,SSW,202,0.0,-999.0,91,-99.99,,,0.00,Acu-Link.com,2013-09-03 02:14:00,
2013-09-02 22:29:00,77.2,74.4,29.77,SSW,202,0.0,-999.0,91,-99.99,,,0.00,Acu-Link.com,2013-09-03 02:29:00,
2013-09-02 22:45:00,77.2,74.4,29.77,SSW,202,0.0,-999.0,91,-99.99,,,0.00,Acu-Link.com,2013-09-03 02:45:00,
2013-09-02 23:00:00,77.0,74.5,29.77,SSW,202,0.0,-999.0,92,-99.99,,,0.00,Acu-Link.com,2013-09-03 03:00:00,
2013-09-02 23:15:00,76.6,74.4,29.77,SSW,202,0.0,-999.0,93,-99.99,,,0.00,Acu-Link.com,2013-09-03 03:15:00,
2013-09-02 23:30:00,76.3,74.1,29.77,SSW,202,0.0,-999.0,93,-99.99,,,0.00,Acu-Link.com,2013-09-03 03:30:00,
2013-09-02 23:46:00,76.1,73.9,29.76,South,180,0.0,-999.0,93,-99.99,,,0.00,Acu-Link.com,2013-09-03 03:46:00,